AirNav   Air Wisconsin pilot careers
 
 568 users online  

19S Sublette Municipal Airport
Sublette, Kansas, USA

GOING TO SUBLETTE?


FAA INFORMATION EFFECTIVE 26 APRIL 2018

Location

FAA Identifier: 19S
Lat/Long: 37-29-48.7000N / 100-49-58.5000W
37-29.811667N / 100-49.975000W
37.4968611 / -100.8329167
(estimated)
Elevation: 2910.7 ft. / 887.2 m (surveyed)
Variation: 09E (1985)
From city: 1 mile NE of SUBLETTE, KS
Time zone: UTC -5 (UTC -6 during Standard Time)
Zip code: 67877

Airport Operations

Airport use: Open to the public
Activation date: 06/1949
Control tower: no
ARTCC: KANSAS CITY CENTER
FSS: WICHITA FLIGHT SERVICE STATION
NOTAMs facility: ICT (NOTAM-D service available)
Attendance: UNATNDD
Wind indicator: yes
Segmented circle: no
Lights: SS-SR

Airport Communications

CTAF: 122.9
UNICOM: 122.8
WX AWOS-3: 118.4 (620-675-8371)

Nearby radio navigation aids

VOR radial/distance  VOR name  Freq  Var
GCKr180/25.8GARDEN CITY VORTAC113.3011E
LBLr003/27.9LIBERAL VORTAC112.3011E

 
NDB name  Hdg/Dist  Freq  Var  ID
ULYSSES097/26.239506EULS ..- .-.. ...
HUGOTON043/32.736509EHQG .... --.- --.

Airport Services

Parking: tiedowns
Airframe service: NONE
Powerplant service: NONE
Bottled oxygen: NONE
Bulk oxygen: NONE

Runway Information

Runway 17/35

Dimensions: 4498 x 60 ft. / 1371 x 18 m
Surface: asphalt, in good condition
Runway edge lights: low intensity
Runway edge markings: NSTD THLD BAR (TOO NARROW).
RUNWAY 17  RUNWAY 35
Latitude: 37-30.190053N37-29.448953N
Longitude: 100-50.058727W100-50.057665W
Elevation: 2909.5 ft.2907.1 ft.
Traffic pattern: leftleft
Markings: basic, in fair conditionbasic, in fair condition
Runway end identifier lights: nono
Touchdown point: yes, no lightsyes, no lights
Obstructions: road, 250 ft. from runway
ROAD AT 250 FT FROM THLD.
15 ft. fence, 200 ft. from runway
ROAD AT 100' FROM THR.

Runway 8/26

Dimensions: 2300 x 100 ft. / 701 x 30 m
Surface: turf, in fair condition
RUNWAY 8  RUNWAY 26
Latitude: 37-29.795930N37-29.793807N
Longitude: 100-50.052042W100-49.576447W
Elevation: 2908.7 ft.2910.6 ft.
Traffic pattern: leftleft
Runway end identifier lights: nono
Touchdown point: yes, no lightsyes, no lights
Obstructions: road, 165 ft. from runway
RY 17/35 AT 35 FT FM END.
10 ft. tower, 130 ft. from runway

Airport Ownership and Management from official FAA records

Ownership: Publicly-owned
Owner: CITY OF SUBLETTE
BOX 934
SUBLETTE, KS 67877
Phone 620-675-2326
Manager: DILLON SHOTTON
BOX 934
SUBLETTE, KS 67877
Phone (620) 287-0505

Airport Operational Statistics

Aircraft based on the field: 3
Single engine airplanes: 3
    
Aircraft operations: avg 50/month *
50% transient general aviation
50% local general aviation
* for 12-month period ending 01 September 2015

Additional Remarks

LGTD 150' GRAIN ELEVATOR SOUTH OF RWY 08/26.
BE ALERT FOR 2 DRAINAGE PIPES CROSSING TWY TO RY 35.

Instrument Procedures

There are no published instrument procedures at 19S.

Some nearby airports with instrument procedures:

KMEJ - Meade Municipal Airport (26 nm SE)
KGCK - Garden City Regional Airport (26 nm N)
KULS - Ulysses Airport (27 nm W)
KLBL - Liberal Mid-America Regional Airport (28 nm S)
KHQG - Hugoton Municipal Airport (33 nm SW)
 
Loc | Ops | Rwys | IFR | FBO | Links
Com | Nav | Svcs | Stats | Notes

Kansas City Aviation Department
 
Area around 19S (Sublette Municipal Airport)
 
Road maps at: MapQuest Bing Google
 
Aerial photo
WARNING: Photo may not be current or correct
Aerial photo of 19S (Sublette Municipal Airport)
Photo by Von Rothenberger
Photo taken 13-Aug-2010
looking south.

Do you have a better or more recent aerial photo of Sublette Municipal Airport that you would like to share? If so, please send us your photo.

 
Sectional chart

 
Airport distance calculator
Flying to Sublette Municipal Airport? Find the distance to fly.

From to 19S

Sunrise and sunset
Times for 24-May-2018
 Local
(UTC-5)
 Zulu
(UTC)
Morning civil twilight05:5910:59
Sunrise06:2911:29
Sunset20:5201:52
Evening civil twilight21:2202:22

Current date and time
Zulu (UTC)  24-May-2018 10:55:25
Local (UTC-5)  24-May-2018 05:55:25
 
METAR
KGCK 
26nm N 
240954Z AUTO 18014KT 10SM FEW120 18/12 A3000 RMK AO2 PK WND 18026/0912 SLP124 T01830117
KLBL 
29nm S 
240956Z AUTO 15010KT 10SM FEW110 23/10 A3002 RMK AO2 PK WND 10029/0913 WSHFT 0845 RAE24 SLP130 P0000 T02280100
KHQG 
33nm SW 
241035Z AUTO 23011KT 10SM SCT120 19/10 A3006 RMK AO2 T01900098
KJHN 
43nm W 
241035Z AUTO 20016KT 10SM SCT120 18/11 A3003 RMK AO2 T01780110
KDDC 
44nm E 
240952Z AUTO 18014G23KT 10SM CLR 19/12 A3002 RMK AO2 PK WND 18028/0918 SLP135 T01940122
TAF
KGCK 
26nm N 
240520Z 2406/2506 13016G26KT P6SM OVC200 FM240900 19012KT P6SM SCT250 FM250000 16017KT P6SM SCT200
KLBL 
29nm S 
240520Z 2406/2506 16019KT P6SM OVC200 FM240900 18013KT P6SM BKN200
NOTAMs
Click for the latest NOTAMs
NOTAMs are issued by the DoD/FAA and will open in a separate window not controlled by AirNav.

 

 
 

Would you like to see your business listed on this page?

 If your business provides an interesting product or service to pilots, flight crews, aircraft, or users of the Sublette Municipal Airport, you should consider listing it here.  To start the listing process, click on the button below
 
Add a business
 

Other Pages about Sublette Municipal Airport

Update a link
 
Copyright © AirNav, LLC. All rights reserved. Privacy Policy  Contact